This is the latest recevied weather packets stored in our database for station/object DR0T. If no packets are shown the sender has not sent any weather packets the latest 10 day(s).
| Time | Temp. | Humidity | Pressure | Rain* | Wind** | Luminosity | Snow |
|---|---|---|---|---|---|---|---|
| 1778230640 | 12.78° C | 75% | 1018.4 hPa | 0 mm | - | - | - |
| 1778230355 | 12.22° C | 76% | 1018.4 hPa | 0 mm | - | - | - |
| 1778230053 | 11.11° C | 80% | 1018.4 hPa | 0 mm | - | - | - |
| 1778229754 | 12.22° C | 81% | 1018.5 hPa | 0 mm | - | - | - |
| 1778229451 | 12.22° C | 78% | 1018.4 hPa | 0 mm | - | - | - |
| 1778229150 | 12.78° C | 79% | 1018.3 hPa | 0 mm | - | - | - |
| 1778228849 | 12.78° C | 78% | 1018.3 hPa | 0 mm | - | - | - |
| 1778228547 | 12.22° C | 79% | 1018.3 hPa | 0 mm | - | - | - |
| 1778228246 | 11.67° C | 80% | 1018.4 hPa | 0 mm | - | - | - |
| 1778227947 | 12.78° C | 80% | 1018.4 hPa | 0 mm | - | - | - |
| 1778227644 | 11.11° C | 82% | 1018.3 hPa | 0 mm | - | - | - |
| 1778227346 | 11.11° C | 84% | 1018.4 hPa | 0 mm | - | - | - |
| 1778227042 | 11.67° C | 83% | 1018.4 hPa | 0 mm | - | - | - |
| 1778226740 | 11.67° C | 83% | 1018.3 hPa | 0 mm | - | - | - |
| 1778226439 | 11.67° C | 83% | 1018.4 hPa | 0 mm | - | - | - |
| 1778226142 | 10.56° C | 85% | 1018.3 hPa | 0 mm | - | - | - |
| 1778225839 | 10.56° C | 86% | 1018.3 hPa | 0 mm | - | - | - |
| 1778225555 | 11.11° C | 85% | 1018.4 hPa | 0 mm | - | - | - |
| 1778225254 | 11.11° C | 86% | 1018.4 hPa | 0 mm | - | - | - |
| 1778224953 | 10.56° C | 86% | 1018.4 hPa | 0 mm | - | - | - |
| 1778224651 | 11.11° C | 88% | 1018.4 hPa | 0 mm | - | - | - |
| 1778224355 | 10.56° C | 87% | 1018.3 hPa | 0 mm | - | - | - |
| 1778224049 | 10.56° C | 88% | 1018.4 hPa | 0 mm | - | - | - |
| 1778223747 | 10.56° C | 87% | 1018.3 hPa | 0 mm | - | - | - |
| 1778223449 | 10.56° C | 87% | 1018.4 hPa | 0 mm | - | - | - |
* Rain latest hour (hover to see other rain measurements)
** Current wind speed in m/s (hover to see current wind gust speed)